This is the latest recevied weather packets stored in our database for station/object IW3HBX-13. If no packets are shown the sender has not sent any weather packets the latest 10 day(s).
| Time | Temp. | Humidity | Pressure | Rain* | Wind** | Luminosity | Snow |
|---|---|---|---|---|---|---|---|
| 1777268890 | 16.67° C | 55% | 1019.8 hPa | 0 mm | - | 108 W/m² | - |
| 1777268528 | 16.11° C | 56% | 1019.8 hPa | 0 mm | - | 94 W/m² | - |
| 1777268170 | 16.11° C | 57% | 1019.7 hPa | 0 mm | - | 83 W/m² | - |
| 1777267809 | 16.11° C | 57% | 1019.7 hPa | 0 mm | - | 75 W/m² | - |
| 1777267448 | 15.56° C | 58% | 1019.6 hPa | 0 mm | - | 67 W/m² | - |
| 1777267090 | 15.56° C | 59% | 1019.7 hPa | 0 mm | - | 60 W/m² | - |
| 1777266735 | 15° C | 60% | 1019.6 hPa | 0 mm | - | 54 W/m² | - |
| 1777266371 | 15° C | 61% | 1019.6 hPa | 0 mm | - | 49 W/m² | - |
| 1777265648 | 14.44° C | 64% | 1019.4 hPa | 0 mm | - | 38 W/m² | - |
| 1777265288 | 14.44° C | 65% | 1019.5 hPa | 0 mm | - | 32 W/m² | - |
| 1777264931 | 14.44° C | 66% | 1019.5 hPa | 0 mm | - | 27 W/m² | - |
| 1777264568 | 13.89° C | 67% | 1019.4 hPa | 0 mm | - | 22 W/m² | - |
| 1777264208 | 13.89° C | 68% | 1019.3 hPa | 0 mm | - | 16 W/m² | - |
| 1777263850 | 13.89° C | 69% | 1019.3 hPa | 0 mm | - | 11 W/m² | - |
| 1777263490 | 13.89° C | 69% | 1019.2 hPa | 0 mm | - | 6 W/m² | - |
| 1777263129 | 13.89° C | 71% | 1019.3 hPa | 0 mm | - | 5 W/m² | - |
| 1777262767 | 13.89° C | 72% | 1019.2 hPa | 0 mm | - | 3 W/m² | - |
| 1777262048 | 13.89° C | 73% | 1019.2 hPa | 0 mm | - | 1 W/m² | - |
| 1777261688 | 13.89° C | 74% | 1019.2 hPa | 0 mm | - | 0 W/m² | - |
| 1777261329 | 13.89° C | 74% | 1019.2 hPa | 0 mm | - | 0 W/m² | - |
| 1777260968 | 13.89° C | 74% | 1019.2 hPa | 0 mm | - | 0 W/m² | - |
| 1777260607 | 13.89° C | 75% | 1019.2 hPa | 0 mm | - | 0 W/m² | - |
| 1777260248 | 13.89° C | 76% | 1019.1 hPa | 0 mm | - | 0 W/m² | - |
| 1777259888 | 13.89° C | 77% | 1019.2 hPa | 0 mm | - | 0 W/m² | - |
| 1777259528 | 13.89° C | 78% | 1019.1 hPa | 0 mm | - | 0 W/m² | - |
* Rain latest hour (hover to see other rain measurements)
** Current wind speed in m/s (hover to see current wind gust speed)